Regional Weather Roundup
Issued by NWS Grand Forks, ND

Home | Current Version | Previous Version | Text Only | Print | Product List | Glossary On
Versions: 1 2 3 4 5 6 7 8 9 10 11 12 13 14 15 16 17 18 19 20 21 22 23 24 25 26 27 28 29 30 31 32 33 34 35 36 37 38 39 40 41 42 43 44 45 46 47 48 49 50
738
ASUS43 KFGF 272131
RWRFGF
PRAIRIE TO PINES  WEATHER ROUNDUP
NATIONAL WEATHER SERVICE EASTERN NORTH DAKOTA/GRAND FORKS ND
300 PM CST MON FEB 27 2017

 **SATELLITE DATA USED TO AUGMENT SKY COVER AT AUTOMATED STATIONS**
 *****  WEATHER ACROSS EASTERN NORTH DAKOTA  *****

CITY           SKY/WX    TMP DP  RH WIND       PRES   REMARKS
GRAND FORKS    CLOUDY    28  14  55 N7        29.86F WCI  21
GRAND FRKS AFB CLOUDY    25  19  80 NE13      29.87F WCI  13
DEVILS LAKE    LGT SNOW  16  12  86 N12       29.84S FOG     WCI   3
FARGO          PTSUNNY   33  23  66 NE10      29.81F WCI  25
WAHPETON ARPT    N/A     32  28  86 E8        29.79R WCI  25
$$

 ***** WEATHER ACROSS CENTRAL AND WESTERN NORTH DAKOTA  *****

CITY           SKY/WX    TMP DP  RH WIND       PRES   REMARKS
BISMARCK       CLOUDY    23  17  78 NE16      29.77F WCI  10
MINOT          LGT SNOW  14   8  77 N9        29.83R WCI   2
JAMESTOWN      CLOUDY    28  20  71 NE10      29.77S WCI  19
MINOT AFB      LGT SNOW  12   7  79 N9        29.83S WCI   0
GARRISON         N/A     15   9  76 NE8       29.80S WCI   4
WILLISTON      CLOUDY    15   7  70 NE10      29.81F WCI   2
DICKINSON      LGT SNOW  16  12  84 NE17      29.70R FOG     WCI   0
HETTINGER      CLOUDY    28  19  69 NE8       29.68S WCI  20
$$

 *****  OTHER AIRPORT OBSERVATIONS IN OUR AREA  *****

CITY           SKY/WX    TMP DP  RH WIND       PRES   REMARKS
WALHALLA       NOT AVBL
GRAFTON AIRPOR MOCLDY    19  16  86 N13       29.92S FOG     WCI   7
VALLEY CITY AR CLOUDY    27  23  86 E12       29.81R WCI  16
CANDO          NOT AVBL
CAVALIER APRT  LGT SNOW  16  10  79 N12       29.92S WCI   3
GWINNER        MOCLDY    32  30  93 NE14      29.76F WCI  22
SHEYENNE NWR     N/A     33  25  72 E12       29.95S WCI  24
ROLLA          CLOUDY    10   5  79 N10       29.84S WCI  -3
 ***** THE ABOVE OBSERVATIONS ARE NON NWS ARE NOT QUALITY
       CONTROLLED AND MAY MIS-REPORT RAIN FOR SNOW...
$$

  *****  WEATHER ACROSS NORTHERN MINNESOTA  *****

CITY           SKY/WX    TMP DP  RH WIND       PRES   REMARKS
FLAG ISLAND    CLOUDY    25  16  68 S6G16     29.86R WCI  18
WARROAD        FAIR      27  16  63 W7        29.88S WCI  19
ROSEAU         FAIR      25  18  74 W7        29.88S WCI  17
HALLOCK        PTSUNNY   19  16  86 N9        29.91S HAZE    WCI   9
THF RVR FALLS    N/A     26  18  71 MISG        N/A
BAUDETTE       FAIR      28  11  48 S5        29.86F WCI  23
WASKISH        FAIR      27  12  54 NW5       29.86F WCI  21
CROOKSTON      FAIR      27  18  69 N6        29.88F WCI  20
STEPHEN NDAWN    N/A     21  18  86 N12         N/A  WCI   9
GREENBUSH NDAW   N/A     21  18  86 W6          N/A  WCI  14
$$
  *****  WEATHER ACROSS CENTRAL AND WEST MINNESOTA  *****

CITY           SKY/WX    TMP DP  RH WIND       PRES   REMARKS
FOSSTON        FAIR      30  18  59 N6        29.84F WCI  24
BEMIDJI        FAIR      31  17  57 E5        29.83S
PARK RAPIDS    CLOUDY    34  19  54 SE8       29.81F
ELBOW LAKE     FAIR      37  26  65 SE9       29.77F HAZE
WADENA         PTSUNNY   32  25  74 SE8       29.81S WCI  25
DETROIT LAKES  FAIR      32  27  80 SE9       29.80F WCI  24
MOORHEAD       FAIR      34  21  60 E10       29.81F
FERGUS FALLS   CLOUDY    34  27  75 SE9G16    29.81F
MORRIS MN      FAIR      39  28  65 SE20      29.75F
STAPLES        CLOUDY    34  25  69 SE6       29.82F
$$
  *****  WEATHER ELSEWHERE ACROSS MINNESOTA  *****

CITY           SKY/WX    TMP DP  RH WIND       PRES   REMARKS
DULUTH         FAIR      31  23  72 SE6       29.89F
INTRNTL FALLS  FAIR      28   8  43 CALM      29.88F
ELY            FAIR      28  18  64 CALM      29.88F
CLOQUET        FAIR      36  21  55 S7        29.87
WHEATON        FAIR      39  27  60 E10       29.78S
BRAINERD       FAIR      35  26  69 S8        29.85F
HIBBING        FAIR      30  19  63 S8        29.86F WCI  22
ALEXANDRIA     CLOUDY    38  22  52 SE13      29.79F
SAINT CLOUD    CLOUDY    41  25  53 S10       29.85F
MINNEAPOLIS    CLOUDY    44  19  36 S12       29.91F
$$

  *****  WEATHER ACROSS SOUTH DAKOTA  *****

CITY           SKY/WX    TMP DP  RH WIND       PRES   REMARKS
SIOUX FALLS    PTSUNNY   44  26  49 S21G29    29.77F
BROOKINGS      FAIR      45  19  35 S24G31    29.73F
WATERTOWN      FAIR      43  20  39 S22G30    29.71F
HURON          FAIR      46  22  38 S13       29.70F
SISSETON         N/A     39  29  67 S9        29.74F
ABERDEEN       FAIR      42  18  37 CALM      29.71F
MITCHELL       FAIR      47  26  44 S17       29.74F
PIERRE         FAIR      49  16  26 NW10      29.63F
MOBRIDGE       FAIR      40  21  46 N5        29.65F
RAPID CITY     CLOUDY    45  24  43 N10       29.56F
$$

  *****  SOME WEATHER IN NEARBY STATES *****

CITY           SKY/WX    TMP DP  RH WIND       PRES   REMARKS
GLASGOW MT     FAIR      19  11  70 E13       29.73F WCI   6
GREAT FALLS MT FAIR      22  12  65 E6        29.53F WCI  14
CHEYENNE WY    FAIR      39  18  42 S13       29.53F
SCOTTSBLUFF NE PTSUNNY   37  20  50 SE8       29.56F
OMAHA NE       PTSUNNY   54  28  36 SE20      29.81F
DES MOINES IA  CLOUDY    56  26  31 SE16      29.91F
DAVENPORT IA   FAIR      53  32  44 S14       30.02F
CHICAGO IL     PTSUNNY   53  33  46 S10       30.08F
EAU CLAIRE WI  FAIR      40  19  43 S9        29.96F
LA CROSSE WI   FAIR      47  27  45 S12       29.98F
$$

  *****  SOME NATIONAL WEATHER *****

CITY           SKY/WX    TMP DP  RH WIND       PRES   REMARKS
LA GUARDIA NY  CLOUDY    52  32  46 S10       30.35S
RALEIGH NC     PTSUNNY   64  19  17 SW9       30.37F
ATLANTA GA     CLOUDY    50  45  83 SE6G25    30.24F
NEW ORLEANS LA PTSUNNY   77  67  71 S16G24    30.06F
OKLAHOMA CITY  FAIR      74  53  48 S18G25    29.81F
ALBUQUERQUE NM PTSUNNY   54  20  26 SW7       29.87F
SALT LAKE CITY CLOUDY    35  28  75 NW8       29.71R
LOS ANGELES CA PTSUNNY   57  47  69 SW7       29.87F
BOISE ID       SNOW      32  26  78 NW5       29.76S VSB 1/2
SEATTLE WA     PTSUNNY   38  34  85 S14G28    29.66F
$$

*** WEATHER ACROSS MANITOBA...SASKATCHEWAN AND ONTARIO ***
                ***ONTARIO***

CITY           SKY/WX    TMP DP  RH WIND       PRES   REMARKS
GERALDTON      PTSUNNY   25   1  36 SW13G22   29.93S WCI  13
THUNDER BAY    MOSUNNY   30  16  55 S6        29.96F WCI  24
SIOUX LOOKOUT  PTSUNNY   25   7  46 SW13G20   29.83S WCI  13
TORONTO        MOSUNNY   48  23  37 W15G21    30.20R
BIG TROUT LK   CLOUDY     5  -4  66 NW7       29.84S WCI  -7
PICKLE LAKE    FLURRIES  23   7  50 SW10G20   29.78F WCI  12
DRYDEN         PTSUNNY   25   7  46 SW12G22   29.83S WCI  14
KENORA         PTSUNNY   23  10  58 S13G20    29.83S WCI  11
$$
                *** MANITOBA***

CITY           SKY/WX    TMP DP  RH WIND       PRES   REMARKS
BRANDON        PTSUNNY   10   0  61 N9        29.89S WCI  -2
DAUPHIN        SUNNY     12   1  62 W14       29.89F WCI  -3
ISLAND LAKE    NOT AVBL
PILOT MOUND      N/A     14   5  67 NW5         N/A  WCI   6
THE PAS        PTSUNNY    7  -8  51 W3        29.86S
THOMPSON       MOSUNNY   -6 -18  54 NW6       29.87R WCI -18
WINNIPEG       CLOUDY    14   5  67 VRB2      29.94S
LYNN LAKE      SUNNY     -9 -20  59 NW7       29.82R WCI -24
CHURCHILL      CRYSTALS -22 -29  69 W12G18    29.87R VSB 1   WCI -45
GILLAM         MOSUNNY  -13 -26  53 NW10      29.87R WCI -32
$$
                ***SASKATCHEWAN***

CITY           SKY/WX    TMP DP  RH WIND       PRES   REMARKS
ESTEVAN        CLOUDY     9   0  66 NE6       29.83F WCI  -1
KINDERSLEY     MOSUNNY   16   3  57 S8        29.69F WCI   5
LLOYDMINSTER   MOSUNNY   19   9  63 W10       29.65F WCI   8
PRINCE ALBERT  PTSUNNY   14   0  52 SW16      29.75F WCI  -2
REGINA         MOSUNNY   12   0  57 S8        29.81F WCI   1
YORKTON        SUNNY      9  -2  61 NW5       29.84S WCI   0
N. BATTLEFORD  SUNNY     18   5  57 W15G21    29.73F WCI   3
LA RONGE       FLURRIES   1  -6  71 NE12      29.75S WCI -15
SASKATOON      MOSUNNY   16   3  57 SW14      29.78F WCI   1
SWIFT CURRENT  PTSUNNY   12   5  73 S13       29.67F WCI  -3
$$
NOTE: THESE ARE AUTOMATED STATIONS WITH LIMITED QUALITY CONTROL
      "FAIR" INDICATES FEW OR NO CLOUDS BELOW 12,000 FEET WITH NO
      SIGNIFICANT WEATHER AND/OR OBSTRUCTIONS TO VISIBILITY.
      SKY/WX - SKY CONDITION AND SIGNIFICANT WEATHER.
      TMP - AIR TEMPERATURE.    DP   - DEWPOINT TEMPERATURE.
      RH  - RELATIVE HUMIDITY.  PRES - PRESSURE.
      HX  - HEAT INDEX.         WCI  - WIND CHILL INDEX.
$




USA.gov is the U.S. government's official web portal to all federal, state and local government web resources and services.